EW0629 Weather Reports


time (UTC)temp
C
wind
direction
speed
KPH
gust
KPH
rain 1hr
cm
rain 24hr
cm
rain mn
cm
humidity
%
barometer
mb
20260505004535 20 197 0.0 0.0 0.00 0.00 0.00 55 1012.8
20260505003029 21 197 0.0 0.0 0.00 0.00 0.00 53 1012.7
20260505001508 22 197 0.0 0.0 0.00 0.00 0.00 47 1012.7
20260505000004 24 197 0.0 0.0 0.00 0.00 0.00 40 1012.5
20260504234544 25 197 0.0 0.0 0.00 0.00 0.00 40 1012.7
20260504233042 25 198 0.0 0.0 0.00 0.00 0.00 38 1012.7
20260504231527 26 175 0.0 0.0 0.00 0.00 0.00 35 1012.7
20260504230028 26 217 0.0 0.0 0.00 0.00 0.00 35 1012.7
20260504224526 26 210 0.0 0.0 0.00 0.00 0.00 35 1012.9
20260504223024 27 187 0.0 0.0 0.00 0.00 0.00 34 1012.9
20260504221524 26 220 0.0 0.0 0.00 0.00 0.00 34 1012.9
20260504220025 27 255 0.0 0.0 0.00 0.00 0.00 36 1012.9
20260504214522 27 244 0.0 0.0 0.00 0.00 0.00 34 1013.0
20260504213023 27 220 0.0 0.0 0.00 0.00 0.00 36 1012.9
20260504211503 26 223 0.0 0.0 0.00 0.00 0.00 35 1012.9
20260504210001 26 216 0.0 0.0 0.00 0.00 0.00 39 1013.1
20260504204543 26 167 0.0 0.0 0.00 0.00 0.00 38 1013.1
20260504203040 26 101 0.0 0.0 0.00 0.00 0.00 40 1013.2
20260504201519 26 226 0.0 0.0 0.00 0.00 0.00 38 1013.7
20260504200033 26 196 0.0 0.0 0.00 0.00 0.00 40 1014.0
20260504194557 26 208 0.0 0.0 0.00 0.00 0.00 39 1014.4
20260504193056 26 238 0.0 0.0 0.00 0.00 0.00 40 1014.3
20260504191550 25 185 0.0 0.0 0.00 0.00 0.00 39 1014.6
20260504190033 25 263 0.0 0.0 0.00 0.00 0.00 37 1014.9
20260504184515 25 309 0.0 0.0 0.00 0.00 0.00 37 1015.0
20260504183032 25 173 0.0 0.0 0.00 0.00 0.00 41 1015.1
20260504181554 25 96 0.0 0.0 0.00 0.00 0.00 39 1015.3
20260504180052 25 217 0.0 0.0 0.00 0.00 0.00 42 1015.4
20260504174533 24 230 0.0 0.0 0.00 0.00 0.00 43 1015.5
20260504173031 24 206 0.0 0.0 0.00 0.00 0.00 45 1015.9
20260504081531 7 252 0.0 0.0 0.00 0.00 0.00 100 1016.9
20260504044540 11 252 0.0 0.0 0.00 0.00 0.00 100 1018.1
20260504043028 11 252 0.0 0.0 0.00 0.00 0.00 3 1018.3
20260504041505 11 285 0.0 0.0 0.00 0.00 0.00 14 1018.2
20260504040002 11 285 0.0 0.0 0.00 0.00 0.00 21 1018.2
20260504034556 11 285 0.0 0.0 0.00 0.00 0.00 26 1018.1
20260504033059 12 285 0.0 0.0 0.00 0.00 0.00 34 1018.2
20260504031519 12 285 0.0 0.0 0.00 0.00 0.00 38 1018.1
20260504030035 12 285 0.0 0.0 0.00 0.00 0.00 44 1017.9
20260504024615 13 285 0.0 0.0 0.00 0.00 0.00 49 1017.8
20260504023103 13 285 0.0 0.0 0.00 0.00 0.00 54 1017.9
20260504021554 13 285 0.0 0.0 0.00 0.00 0.00 59 1017.6
20260504020037 14 285 0.0 0.0 0.00 0.00 0.00 59 1017.4
20260504014541 15 285 0.0 0.0 0.00 0.00 0.00 63 1017.4
20260504013010 15 285 0.0 0.0 0.00 0.00 0.00 64 1017.2
20260504011507 15 285 0.0 0.0 0.00 0.00 0.00 64 1017.0
20260504010054 16 285 0.0 0.0 0.00 0.00 0.00 61 1016.9